Regional Weather Roundup
Issued by NWS Upton, NY

Current Version | Previous Version | Graphics & Text | Print | Product List | Glossary Off
Versions: 1 2 3 4 5 6 7 8 9 10 11 12 13 14 15 16 17 18 19 20 21 22 23 24 25 26 27 28 29 30 31 32 33 34 35 36 37 38 39 40 41 42 43 44 45 46 47 48 49 50

000
ASUS41 KOKX 201707
RWROKX

REGIONAL WEATHER ROUNDUP
NATIONAL WEATHER SERVICE NEW YORK NY
100 PM EDT MON APR 20 2015

NOTE: "FAIR" INDICATES FEW OR NO CLOUDS BELOW 12,000 FEET WITH NO
SIGNIFICANT WEATHER AND/OR OBSTRUCTIONS TO VISIBILITY.

NYZ071-072-176-178-NJZ106-104-201800-
NEW YORK CITY METRO AREA


CITY           SKY/WX    TMP DP  RH WIND       PRES   REMARKS
CENTRAL PARK   LGT RAIN  56  55  97 SE6       29.75F FOG
LAGUARDIA APRT LGT RAIN  58  55  90 SE15G24   29.72S FOG
KENNEDY INTL   LGT RAIN  57  54  89 SE26G35   29.72F FOG
NEWARK/LIBERTY DRIZZLE   58  56  93 SE14G22   29.71F FOG
BRNX BOT. GARD   N/A     52  52 100 N2        29.75F
TETERBORO      RAIN      54  52  94 N6        29.72F VSB 3/4
$$

NYZ177-179-078>081-201800-
LONG ISLAND NEW YORK

CITY           SKY/WX    TMP DP  RH WIND       PRES   REMARKS
FARMINGDALE    RAIN      55  53  93 SE23G32   29.75F FOG
ISLIP          HVY RAIN  53  51  93 E29G38    29.74F FOG
SHIRLEY        LGT RAIN  52  50  93 SE16G36   29.79F FOG
WESTHAMPTON    LGT RAIN  51  49  92 E16G32    29.81F FOG
MONTAUK POINT    N/A     51  48  89 E16G30    29.87F
$$

NYZ052-065-067-201800-
HUDSON VALLEY

CITY           SKY/WX    TMP DP  RH WIND       PRES   REMARKS
WHITE PLAINS   RAIN      50  49  96 E15G21    29.75F VSB 1
NEWBURGH       CLOUDY    50  48  93 E13G25    29.79F
MONTGOMERY     LGT RAIN  52  32  46 NE9G17    29.77F
POUGHKEEPSIE   LGT RAIN  54  49  83 CALM      29.78S
ALBANY         LGT RAIN  51  43  74 SE9       29.83F
$$

NJZ001-105-106-008-010-013-015-019>022-104-201800-
NEW JERSEY

CITY           SKY/WX    TMP DP  RH WIND       PRES   REMARKS
NEWARK/LIBERTY DRIZZLE   58  56  93 SE14G22   29.71F FOG
TETERBORO      RAIN      54  52  94 N6        29.72F VSB 3/4
CALDWELL       LGT RAIN  52  51  97 E14       29.73F FOG
MORRISTOWN     LGT RAIN  54  52  94 E9        29.72F FOG
SOMERVILLE     CLOUDY    58  55  90 VRB5      29.66F FOG
SUSSEX         CLOUDY    52  49  89 N12       29.73F FOG
ANDOVER          N/A     55  52  89 CALM      29.70F
TRENTON        CLOUDY    60  58  92 NE5       29.66F FOG
MILLVILLE      CLOUDY    68  64  87 S6        29.66F
ATLANTIC CITY  CLOUDY    62  59  90 S8        29.67F
WRIGHTSTOWN    CLOUDY    64  64 100 SE9       29.63F
TOMS RIVER     CLOUDY    63  61  94 S8        29.68F
BELMAR         CLOUDY    59  54  82 S8        29.69F
$$

PAZ047>061-062-071-201800-
EASTERN PENNSYLVANIA

CITY           SKY/WX    TMP DP  RH WIND       PRES   REMARKS
PHILADELPHIA   PTSUNNY   66  63  90 SW7       29.65F
ALLENTOWN      CLOUDY    58  55  90 E8        29.67F FOG
SCRANTON       CLOUDY    60  50  69 VRB5G18   29.66F
$$

CTZ002-004>006-009-010-012-RIZ004-006-007-MAZ004-011-015-201800-
SOUTHERN NEW ENGLAND
 IN CT

CITY           SKY/WX    TMP DP  RH WIND       PRES   REMARKS
BRADLEY INTL   LGT RAIN  49  45  86 E12       29.90F FOG
HARTFORD       RAIN      50  47  89 E9        29.88F FOG
DANBURY        LGT RAIN  51  48  89 E13G23    29.82F FOG
WTRBRY/OXFORD  RAIN      52  45  76 SE15G29   29.82F FOG
BRIDGEPORT     LGT RAIN  46  44  93 E22       29.80F FOG
MERIDEN        RAIN      53  49  86 E17G33    29.84F FOG
NEW HAVEN      RAIN      48  45  89 E22G33    29.81F FOG
CHESTER        DRIZZLE   48  48 100 SE16G28   29.88F
GROTON         LGT RAIN  47  43  86 E25G36    29.90F FOG
WILLIMANTIC    LGT RAIN  48  45  89 E8        29.94F FOG

 IN RI

CITY           SKY/WX    TMP DP  RH WIND       PRES   REMARKS
PROVIDENCE     LGT RAIN  48  43  82 E16G28    29.98F FOG
BLOCK ISLAND   CLOUDY    46  43  87 SE26G36   29.92F
WESTERLY       LGT RAIN  47  44  90 E20G35    29.94F FOG

 IN MA

CITY           SKY/WX    TMP DP  RH WIND       PRES   REMARKS
BOSTON         LGT RAIN  43  40  89 E18       30.08F FOG
WORCESTER      RAIN      41  40  96 E12       29.98F FOG
WESTFIELD      RAIN      47  44  90 NE8       29.93F FOG
PROVINCETOWN   CLOUDY   N/A N/A N/A E23G39    30.07F
NANTUCKET      CLOUDY    50  41  71 E20G31    30.03F
$$

ANZ330-335-338-340-345-350-353-355-201800-
COASTAL MARINE OBSERVATIONS


STATION/POSITION TIME  SKY/WX   TEMP    WIND        PRES    VSBY  WAVE
                                AIR SEA DIR/SP/G                  HT/PER
                 (UTC)          (F)     (DEG/KT/KT) (MB)    (MI)  (FT/S)
NY HARB ENTRANCE 1650            54 44  140/ 17/ 21 1005.8          9/ 7
4S FIRE IS       1603               43                N/A           9/ 7
20S FIRE ISLAND  1550               44              1007.6          8/ 7
23SW MTP         NOT AVBL
HUDSON CANYON    NOT AVBL
EXECUTION ROCKS  NOT AVBL
WESTERN LI SOUND NOT AVBL
CENTRAL LI SOUND NOT AVBL
EASTERN LI SOUND 1600            44      80/ 21/ 31   N/A
ROBBINS REEF     1600            53     140/ 26/ 31 1005.3
$$


>>>>>>>>>>>>>>>>>>>>>>>>>>>> KEY <<<<<<<<<<<<<<<<<<<<<<<<<<<
>                                                          <
>     SKY/WX - SKY CONDITION/PRESENT WEATHER               <
>     TMP    - TEMPERATURE IN FAHRENHEIT                   <
>     DP     - DEWPOINT IN FAHRENHEIT                      <
>     RH     - RELATIVE HUMIDITY IN PERCENT                <
>     WIND   - DIRECTION AND SPEED IN MPH                  <
>     PRES   - MEAN SEA LEVEL PRESSURE IN INCHES OF HG     <
>     WCI    - WIND CHILL INDEX                            <
>     VSB    - VISIBILITY IN MILES                         <
>     HX     - HEAT INDEX                                  <
>     TC     - TEMPERATURE IN CELSIUS                      <
>     VRB    - VARIABLE WIND DIRECTION                     <
>                                                          <
>>>>>>>>>>>>>>>>>>>>>>>>>>>> KEY <<<<<<<<<<<<<<<<<<<<<<<<<<<





USA.gov is the U.S. government's official web portal to all federal, state and local government web resources and services.